This is the latest recevied weather packets stored in our database for station/object EA1JAV-10. If no packets are shown the sender has not sent any weather packets the latest 10 day(s).
| Time | Temp. | Humidity | Pressure | Rain* | Wind** | Luminosity | Snow |
|---|---|---|---|---|---|---|---|
| 1777548356 | 20° C | 42% | 1003 hPa | - | - | - | - |
| 1777546555 | 20° C | 42% | 1002.8 hPa | - | - | - | - |
| 1777544755 | 19.44° C | 42% | 1002.6 hPa | - | - | - | - |
| 1777542955 | 19.44° C | 42% | 1002.4 hPa | - | - | - | - |
| 1777541155 | 20.56° C | 41% | 1002.1 hPa | - | - | - | - |
| 1777539355 | 19.44° C | 43% | 1001.7 hPa | - | - | - | - |
| 1777537555 | 19.44° C | 43% | 1001.3 hPa | - | - | - | - |
| 1777535755 | 19.44° C | 43% | 1001 hPa | - | - | - | - |
| 1777533955 | 19.44° C | 43% | 1000.7 hPa | - | - | - | - |
| 1777532155 | 18.89° C | 43% | 1000.5 hPa | - | - | - | - |
| 1777530355 | 19.44° C | 43% | 1000.2 hPa | - | - | - | - |
| 1777528555 | 19.44° C | 43% | 999.9 hPa | - | - | - | - |
| 1777526755 | 18.89° C | 43% | 999.7 hPa | - | - | - | - |
| 1777524955 | 18.89° C | 43% | 999.4 hPa | - | - | - | - |
| 1777523155 | 18.89° C | 43% | 999.2 hPa | - | - | - | - |
| 1777521354 | 18.89° C | 43% | 999.2 hPa | - | - | - | - |
| 1777519554 | 20° C | 42% | 998.8 hPa | - | - | - | - |
| 1777517754 | 18.89° C | 44% | 998.7 hPa | - | - | - | - |
| 1777515954 | 18.89° C | 43% | 998.3 hPa | - | - | - | - |
| 1777514153 | 18.89° C | 43% | 998.1 hPa | - | - | - | - |
| 1777512353 | 19.44° C | 44% | 997.9 hPa | - | - | - | - |
| 1777510553 | 19.44° C | 44% | 997.9 hPa | - | - | - | - |
| 1777508753 | 19.44° C | 42% | 997.6 hPa | - | - | - | - |
| 1777506953 | 19.44° C | 43% | 997.3 hPa | - | - | - | - |
| 1777505153 | 19.44° C | 43% | 996.9 hPa | - | - | - | - |
* Rain since midnight (hover to see other rain measurements)
** Current wind speed in m/s (hover to see current wind gust speed)